Portada
METAR-TAF:

METAR-TAF

Aeropuertos :

Brenner Field

Falls City, Nebraska, Estados Unidos

latitud: 40-04-44N, longitud: 095-35-31W, altitud: 300 m

Observación

El informe se hizo hace 20 minutos, a las 06:53 UTC
Viento 9 kt del sureste
Temperatura 26°C
Humedad 79%
Presión 1012 hPa
Visibilidad: 16.1 km
Cielo despejado

METAR: KFNB 070653Z AUTO 14009KT 10SM CLR 26/22 A2987 RMK AO2 SLP103 T02610222

Hora: 02:13 (07:13 UTC)


TAF: falta

Observaciones y pronósticos meteorológicos de más de 4000 aeropuertos (mensajes METAR y TAF).

Los puntos amarillos y rojos representan las estaciones disponibles.

Ponga el ratón en el punto deseado para ver el nombre de la estación.

Haga clic para ver las observaciones y los pronósticos meteorológicos.

Para cambiar el mapa : haga clic en los botones verdes con una cruz de color negro para hacer un zoom, en el botón verde con un guión para alejar o en las flechas verdes para mapas adyacentes.


METAR-TAF: